PACCTY Weather Reports


Display with metric or nautical units.
time (UTC)temp
F
wind
direction
speed
MPH
gust
MPH
rain 1hr
in
rain 24hr
in
rain mn
in
humidity
%
barometer
mb
20260508201524 60 219 3.0 8.0 0.00 0.00 0.00 73 1020.6
20260508175524 55 204 1.0 4.0 0.00 0.00 0.00 81 1020.4
20260508172524 55 208 2.0 3.0 0.00 0.00 0.00 80 1020.2
20260508165523 55 189 1.0 4.0 0.00 0.00 0.00 83 1020.1
20260508164524 54 0 0.0 0.0 0.00 0.00 0.00 84 1020.0
20260508161523 53 0 0.0 0.0 0.00 0.00 0.00 86 1019.9
20260508161024 53 0 0.0 0.0 0.00 0.00 0.00 87 1019.8
20260508160024 53 0 0.0 0.0 0.00 0.00 0.00 88 1019.7
20260508155024 53 0 0.0 0.0 0.00 0.00 0.00 89 1019.7
20260508153523 52 0 0.0 0.0 0.00 0.00 0.00 92 1019.6
20260508152523 52 0 0.0 0.0 0.00 0.00 0.00 93 1019.6
20260508151523 51 0 0.0 0.0 0.00 0.00 0.00 93 1019.3
20260508151023 51 0 0.0 0.0 0.00 0.00 0.00 94 1019.3
20260508150523 51 0 0.0 0.0 0.00 0.00 0.00 94 1019.3
20260508150023 51 0 0.0 0.0 0.00 0.00 0.00 94 1019.2
20260508145523 51 0 0.0 0.0 0.00 0.00 0.00 94 1019.0
20260508144523 50 0 0.0 0.0 0.00 0.00 0.00 94 1018.9
20260508142523 49 0 0.0 0.0 0.00 0.00 0.00 95 1018.7
20260508141523 49 0 0.0 0.0 0.00 0.00 0.00 95 1018.7
20260508141023 48 0 0.0 0.0 0.00 0.00 0.00 95 1018.7
20260508140523 48 0 0.0 0.0 0.00 0.00 0.00 95 1018.8
20260508135024 48 0 0.0 0.0 0.00 0.00 0.00 95 1018.3
20260508134523 48 0 0.0 0.0 0.00 0.00 0.00 95 1018.5
20260508134023 48 0 0.0 0.0 0.00 0.00 0.00 95 1018.5
20260508133523 48 0 0.0 0.0 0.00 0.00 0.00 95 1018.5
20260508133023 48 0 0.0 0.0 0.00 0.00 0.00 94 1018.6
20260508132523 48 0 0.0 0.0 0.00 0.00 0.00 94 1018.8
20260508131523 48 0 0.0 0.0 0.00 0.00 0.00 94 1018.7
20260508131023 48 0 0.0 0.0 0.00 0.00 0.00 94 1018.7
20260508130523 48 0 0.0 0.0 0.00 0.00 0.00 94 1018.8
20260508130023 48 0 0.0 0.0 0.00 0.00 0.00 94 1018.9
20260508125523 48 0 0.0 0.0 0.00 0.00 0.00 94 1018.8
20260508125023 48 0 0.0 0.0 0.00 0.00 0.00 95 1018.8
20260508124023 48 0 0.0 0.0 0.00 0.00 0.00 95 1018.7
20260508123523 48 0 0.0 0.0 0.00 0.00 0.00 95 1018.7
20260508123023 48 0 0.0 0.0 0.00 0.00 0.00 95 1018.6
20260508122523 48 0 0.0 0.0 0.00 0.00 0.00 95 1018.6
20260508122023 47 0 0.0 0.0 0.00 0.00 0.00 95 1018.6
20260508121523 48 0 0.0 0.0 0.00 0.00 0.00 95 1018.7
20260508121023 48 0 0.0 0.0 0.00 0.00 0.00 95 1018.5
20260508120523 47 0 0.0 0.0 0.00 0.00 0.00 95 1018.6
20260508120023 47 0 0.0 0.0 0.00 0.00 0.00 95 1018.5
20260508115523 47 0 0.0 0.0 0.00 0.00 0.00 95 1018.5
20260508115023 47 0 0.0 0.0 0.00 0.00 0.00 95 1018.4
20260508114523 47 0 0.0 0.0 0.00 0.00 0.00 95 1018.3
20260508114023 47 0 0.0 0.0 0.00 0.00 0.00 95 1018.3
20260508113523 47 0 0.0 0.0 0.00 0.00 0.00 95 1018.2
20260508113023 47 0 0.0 0.0 0.00 0.00 0.00 95 1018.3
20260508112523 47 0 0.0 0.0 0.00 0.00 0.00 95 1018.3
20260508112023 47 0 0.0 0.0 0.00 0.00 0.00 95 1018.2
20260508111523 47 0 0.0 0.0 0.00 0.00 0.00 95 1018.1
20260508111023 47 0 0.0 0.0 0.00 0.00 0.00 95 1018.0
20260508110523 47 0 0.0 0.0 0.00 0.00 0.00 95 1017.9
20260508110023 47 0 0.0 0.0 0.00 0.00 0.00 95 1017.9
20260508105523 47 0 0.0 0.0 0.00 0.00 0.00 95 1018.0
20260508105023 47 0 0.0 0.0 0.00 0.00 0.00 95 1018.1
20260508104523 47 0 0.0 0.0 0.00 0.00 0.00 95 1018.0
20260508104023 47 0 0.0 0.0 0.00 0.00 0.00 95 1018.0
20260508103523 47 0 0.0 0.0 0.00 0.00 0.00 95 1017.9
20260508103023 47 0 0.0 0.0 0.00 0.00 0.00 95 1017.8
20260508102523 47 0 0.0 0.0 0.00 0.00 0.00 95 1017.8
20260508102023 47 0 0.0 0.0 0.00 0.00 0.00 95 1017.7
20260508101523 47 0 0.0 0.0 0.00 0.00 0.00 95 1017.7
20260508101025 47 0 0.0 0.0 0.00 0.00 0.00 95 1017.6
20260508100523 47 0 0.0 0.0 0.00 0.00 0.00 95 1017.6
20260508100023 47 0 0.0 0.0 0.00 0.00 0.00 95 1017.5
20260508095523 47 0 0.0 0.0 0.00 0.00 0.00 95 1017.5
20260508095023 47 0 0.0 0.0 0.00 0.00 0.00 95 1017.5
20260508094523 47 0 0.0 0.0 0.00 0.00 0.00 95 1017.4
20260508094023 47 0 0.0 0.0 0.00 0.00 0.00 95 1017.4
20260508093525 47 0 0.0 0.0 0.00 0.00 0.00 95 1017.5
20260508093023 47 0 0.0 0.0 0.00 0.00 0.00 95 1017.4
20260508092023 47 0 0.0 0.0 0.00 0.00 0.00 95 1017.4
20260508091523 46 0 0.0 0.0 0.00 0.00 0.00 95 1017.3
20260508091023 46 0 0.0 0.0 0.00 0.00 0.00 95 1017.2
20260508090526 46 0 0.0 0.0 0.00 0.00 0.00 95 1017.1
20260508090025 46 0 0.0 0.0 0.00 0.00 0.00 95 1017.0
20260508085523 46 0 0.0 0.0 0.00 0.00 0.00 95 1017.1
20260508085023 46 0 0.0 0.0 0.00 0.00 0.00 95 1016.9
20260508084523 46 0 0.0 0.0 0.00 0.00 0.00 95 1016.9
20260508084023 46 0 0.0 0.0 0.00 0.00 0.00 95 1016.9
20260508083523 46 0 0.0 0.0 0.00 0.00 0.00 95 1016.9
20260508083024 46 0 0.0 0.0 0.00 0.00 0.00 95 1016.8
20260508082522 46 0 0.0 0.0 0.00 0.00 0.00 95 1016.8
20260508082023 46 0 0.0 0.0 0.00 0.00 0.00 95 1016.7
20260508081523 46 0 0.0 0.0 0.00 0.00 0.00 95 1016.7
20260508081023 46 0 0.0 0.0 0.00 0.00 0.00 95 1016.6
20260508080523 46 0 0.0 0.0 0.00 0.00 0.00 95 1016.6
20260508080023 46 0 0.0 0.0 0.00 0.00 0.00 94 1016.7
20260508075523 46 0 0.0 0.0 0.00 0.00 0.00 94 1016.8
20260508075022 46 0 0.0 0.0 0.00 0.00 0.00 94 1016.8
20260508074523 46 0 0.0 0.0 0.00 0.00 0.00 94 1016.6
20260508074022 46 0 0.0 0.0 0.00 0.00 0.00 94 1016.6
20260508073523 46 0 0.0 0.0 0.00 0.00 0.00 93 1016.6
20260508073023 46 0 0.0 0.0 0.00 0.00 0.00 93 1016.5
20260508072522 47 0 0.0 0.0 0.00 0.00 0.00 92 1016.5
20260508071522 47 0 0.0 0.0 0.00 0.00 0.00 92 1016.5
20260508070022 48 0 0.0 0.0 0.00 0.00 0.00 92 1016.5
20260508065523 48 0 0.0 0.0 0.00 0.00 0.00 92 1016.4
20260508065023 48 0 0.0 0.0 0.00 0.00 0.00 92 1016.4
20260508064522 48 0 0.0 0.0 0.00 0.00 0.00 92 1016.2
20260508064023 48 0 0.0 0.0 0.00 0.00 0.00 92 1016.2
20260508063522 48 0 0.0 0.0 0.00 0.00 0.00 92 1016.3
20260508063022 48 0 0.0 0.0 0.00 0.00 0.00 92 1016.2
20260508062523 48 0 0.0 0.0 0.00 0.00 0.00 92 1016.2
20260508062023 48 0 0.0 0.0 0.00 0.00 0.00 92 1016.2
20260508061523 48 0 0.0 0.0 0.00 0.00 0.00 91 1016.1
20260508061022 48 0 0.0 0.0 0.00 0.00 0.00 91 1016.1
20260508060522 48 0 0.0 0.0 0.00 0.00 0.00 91 1016.0
20260508060022 48 0 0.0 0.0 0.00 0.00 0.00 91 1016.0
20260508055523 49 0 0.0 0.0 0.00 0.00 0.00 90 1015.9
20260508054023 49 0 0.0 0.0 0.00 0.00 0.00 90 1016.0
20260508053523 50 0 0.0 0.0 0.00 0.00 0.00 89 1015.9
20260508053023 50 0 0.0 0.0 0.00 0.00 0.00 88 1015.9
20260508052023 50 0 0.0 0.0 0.00 0.00 0.00 88 1015.9
20260508051522 50 0 0.0 0.0 0.00 0.00 0.00 87 1016.0
20260508051023 51 0 0.0 0.0 0.00 0.00 0.00 87 1016.0
20260508050523 51 0 0.0 0.0 0.00 0.00 0.00 87 1016.0
20260508050023 51 0 0.0 0.0 0.00 0.00 0.00 86 1016.0
20260508045523 51 0 0.0 0.0 0.00 0.00 0.00 86 1016.0
20260508045023 51 0 0.0 0.0 0.00 0.00 0.00 86 1015.9
20260508044023 51 0 0.0 0.0 0.00 0.00 0.00 86 1016.0
20260508043523 52 0 0.0 0.0 0.00 0.00 0.00 85 1015.9
20260508043023 52 0 0.0 0.0 0.00 0.00 0.00 85 1015.8
20260508042523 52 0 0.0 0.0 0.00 0.00 0.00 85 1015.9
20260508042023 52 0 0.0 0.0 0.00 0.00 0.00 85 1015.8
20260508041523 52 0 0.0 0.0 0.00 0.00 0.00 84 1015.7
20260508041023 52 0 0.0 0.0 0.00 0.00 0.00 84 1015.7
20260508040523 52 0 0.0 0.0 0.00 0.00 0.00 84 1015.7
20260508040023 52 0 0.0 0.0 0.00 0.00 0.00 84 1015.7
20260508035022 52 0 0.0 0.0 0.00 0.00 0.00 84 1015.6
20260508034523 53 0 0.0 0.0 0.00 0.00 0.00 84 1015.5
20260508033523 53 0 0.0 0.0 0.00 0.00 0.00 83 1015.5
20260508033023 53 0 0.0 0.0 0.00 0.00 0.00 83 1015.4
20260508032522 53 0 0.0 0.0 0.00 0.00 0.00 83 1015.4
20260508032022 53 0 0.0 0.0 0.00 0.00 0.00 82 1015.4
20260508030022 54 0 0.0 0.0 0.00 0.00 0.00 81 1015.1
20260508025523 54 0 0.0 0.0 0.00 0.00 0.00 81 1015.1
20260508025022 54 0 0.0 0.0 0.00 0.00 0.00 80 1015.2
20260508024522 54 0 0.0 0.0 0.00 0.00 0.00 80 1015.1
20260508024022 54 0 0.0 0.0 0.00 0.00 0.00 80 1015.2
20260508023522 54 0 0.0 0.0 0.00 0.00 0.00 79 1015.2
20260508023022 54 0 0.0 0.0 0.00 0.00 0.00 79 1015.2
20260508022522 55 0 0.0 3.0 0.00 0.00 0.00 78 1015.3
20260508022022 55 0 0.0 3.0 0.00 0.00 0.00 78 1015.3
20260508020022 55 16 0.0 3.0 0.00 0.00 0.00 77 1015.4
20260508011022 56 264 0.0 2.0 0.00 0.00 0.00 74 1015.8
20260508005523 57 0 0.0 0.0 0.00 0.00 0.00 72 1015.7
20260508005022 57 0 0.0 0.0 0.00 0.00 0.00 72 1015.9
20260508004522 58 0 0.0 0.0 0.00 0.00 0.00 71 1016.0
20260508004022 58 0 0.0 0.0 0.00 0.00 0.00 71 1016.2
20260508003522 59 0 0.0 9.0 0.00 0.00 0.00 70 1016.2
20260508003022 59 233 0.0 9.0 0.00 0.00 0.00 70 1016.3
20260508002522 59 259 5.0 7.0 0.00 0.00 0.00 70 1016.4
20260508002022 59 259 1.0 7.0 0.00 0.00 0.00 70 1016.3
20260508001522 59 219 2.0 7.0 0.00 0.00 0.00 69 1016.3
20260508001022 60 210 3.0 7.0 0.00 0.00 0.00 69 1016.3
20260508000522 60 253 1.0 4.0 0.00 0.00 0.00 69 1016.3
20260508000022 60 217 0.0 4.0 0.00 0.00 0.00 69 1016.3
20260507235022 61 260 0.0 8.0 0.00 0.00 0.00 67 1016.3
20260507234522 61 198 0.0 8.0 0.00 0.00 0.00 66 1016.3
20260507233522 62 204 1.0 10.0 0.00 0.00 0.00 65 1016.4
20260507232522 63 225 0.0 10.0 0.00 0.00 0.00 65 1016.5
20260507232023 63 263 0.0 6.0 0.00 0.00 0.00 65 1016.5
20260507231022 63 210 0.0 1.0 0.00 0.00 0.00 65 1016.7
20260507225522 63 233 3.0 5.0 0.00 0.00 0.00 67 1016.9
20260507224522 62 238 1.0 5.0 0.00 0.00 0.00 66 1017.1
20260507224022 62 259 0.0 5.0 0.00 0.00 0.00 65 1017.2
20260507223022 63 236 0.0 2.0 0.00 0.00 0.00 67 1017.4
20260507220522 62 317 0.0 5.0 0.00 0.00 0.00 67 1017.6
20260507214022 63 289 0.0 4.0 0.00 0.07 0.00 65 1017.8